[[{"header":{"parameterUnit":"m.s-1","parameterCategory":1,"la1":30.2991,"la2":30.254,"lo1":-89.0895,"lo2":-89.0444,"dx":0.0017,"dy":0.0017,"nx":28,"ny":28,"refTime":"2022-12-05T15:00:00:Z","depth":0,"parameterNumber":2,"parameterNumberName":"U-component_of_WINDS"},"data":[0,0,0,0,0,0,0,0,0,0,0,0,0,0,0,0,0,0,0,0,0,0,0,0,0,0,0,0,0,0,0,0,0,0,0,0,0,0,0,0,0,0,0,0,0,0,0,0,0,0,0,0,0,0,0,0,0,0,-0.5317,-0.5317,0,-0.5359,-0.5359,-0.536,-0.5392,-0.5393,-0.5393,-0.5393,-0.544,-0.5441,-0.5442,0,0,0,0,0,0,0,0,0,0,0,0,0,-0.5267,-0.5267,-0.5316,-0.5317,-0.5317,-0.5359,-0.5359,-0.536,-0.5392,-0.5393,-0.5393,-0.5393,-0.544,-0.5441,-0.5442,0,0,0,0,0,0,0,0,0,0,0,0,0,-0.5297,-0.5268,-0.5316,-0.5339,-0.5341,-0.5359,-0.5359,-0.536,-0.5392,-0.5393,-0.5393,-0.5394,-0.5439,-0.5441,-0.5442,-0.5442,0,0,-0.5446,-0.5447,0,0,0,0,0,0,0,0,-0.5295,-0.5298,-0.5335,-0.5337,-0.534,-0.5371,-0.5359,-0.5388,-0.5392,-0.5373,-0.5393,-0.5394,-0.5417,-0.542,-0.5427,-0.5444,-0.5446,-0.5446,-0.5447,-0.5448,-0.5448,0,0,0,0,0,0,0,-0.5293,-0.5297,-0.5333,-0.5335,-0.5338,-0.5347,-0.5352,-0.5364,-0.5392,-0.5375,-0.5377,-0.5381,-0.5418,-0.5426,-0.5428,-0.5447,-0.5446,-0.5448,-0.5449,-0.5449,-0.5466,-0.5465,0,0,0,0,0,0,-0.5287,-0.5295,-0.5332,-0.5335,-0.5318,-0.5348,-0.5353,-0.536,-0.5392,-0.5397,-0.5381,-0.5383,-0.5423,-0.5427,-0.543,-0.5432,-0.5448,-0.5449,-0.545,-0.5466,-0.5466,-0.5465,0,0,0,0,0,0,-0.5286,-0.529,-0.533,-0.5315,-0.5321,-0.5348,-0.5356,-0.5361,-0.5368,-0.5397,-0.5402,-0.5383,-0.5423,-0.5428,-0.5438,-0.5434,-0.545,-0.5451,-0.5467,-0.5466,-0.5465,-0.5435,0,0,0,0,0,0,-0.5284,-0.5289,-0.5289,-0.5315,-0.5322,-0.5337,-0.5356,-0.5361,-0.537,-0.5373,-0.54,-0.5405,-0.5424,-0.5436,-0.544,-0.5436,-0.5452,-0.5467,-0.5466,-0.5466,-0.5436,-0.5433,-0.543,0,0,0,0,0,-0.5282,-0.5279,-0.5288,-0.5293,-0.5322,-0.5336,-0.534,-0.5361,-0.537,-0.537,-0.5388,-0.5404,-0.5434,-0.5437,-0.5441,-0.5438,-0.5467,-0.5467,-0.5466,-0.5438,-0.5434,-0.5431,0,0,0,0,0,0,-0.5253,-0.5283,-0.5294,-0.5299,-0.5315,-0.5342,-0.5343,-0.5357,-0.5371,-0.5373,-0.54,-0.5406,-0.5413,-0.5427,-0.543,-0.5439,-0.5453,-0.5453,-0.543,-0.5427,-0.5424,-0.542,-0.5454,0,0,0,0,0,-0.5247,-0.5255,-0.5282,-0.5284,-0.5291,-0.5315,-0.5323,-0.5337,-0.5355,-0.5362,-0.5381,-0.5399,-0.5412,-0.542,-0.5434,-0.5439,-0.5445,-0.5439,-0.5436,-0.5433,-0.5433,-0.5436,-0.5433,-0.5462,-0.5462,-0.5462,0,0,-0.5235,-0.5252,-0.5256,-0.5278,-0.5292,-0.5301,-0.5321,-0.533,-0.5337,-0.5364,-0.5374,-0.5389,-0.541,-0.5418,-0.5422,-0.5429,-0.5426,-0.5432,-0.543,-0.5431,-0.5435,-0.5432,-0.543,-0.5461,-0.5461,-0.5462,0,0,-0.5217,-0.5231,-0.5234,-0.5247,-0.5268,-0.5284,-0.5285,-0.531,-0.532,-0.533,-0.5351,-0.5361,-0.5383,-0.5397,-0.5407,-0.5395,-0.541,-0.5399,-0.5383,-0.5386,-0.5384,-0.5382,-0.5377,-0.5375,-0.5398,-0.5398,-0.5398,0,-0.52,-0.5213,-0.5234,-0.5241,-0.5251,-0.5275,-0.5278,-0.5291,-0.5315,-0.5321,-0.5329,-0.5357,-0.5373,-0.5384,-0.5381,-0.5388,-0.539,-0.5395,-0.5382,-0.5381,-0.5379,-0.5375,-0.5373,-0.5396,-0.5397,-0.5397,-0.5397,0,-0.519,-0.5199,-0.5199,-0.5221,-0.523,-0.5235,-0.5259,-0.5266,-0.528,-0.5295,-0.5306,-0.5326,-0.5344,-0.5348,-0.5362,-0.5361,-0.5365,-0.5377,-0.5391,-0.5374,-0.5371,-0.5369,-0.5394,-0.5395,-0.5395,-0.5396,0,0,-0.5155,-0.5188,-0.5187,-0.5197,-0.5221,-0.5229,-0.5236,-0.5252,-0.5258,-0.5274,-0.5281,-0.5299,-0.531,-0.5321,-0.5338,-0.534,-0.5329,-0.5352,-0.5353,-0.5347,-0.5328,-0.5318,-0.5316,-0.5339,-0.5339,-0.5339,-0.5326,0,-0.5141,-0.5153,-0.5172,-0.5178,-0.5187,-0.521,-0.5216,-0.5232,-0.5246,-0.5257,-0.5274,-0.5286,-0.53,-0.5307,-0.5311,-0.5329,-0.5325,-0.533,-0.5346,-0.5346,-0.5339,-0.5314,-0.5304,-0.5291,-0.5325,-0.5325,-0.5324,0,-0.5126,-0.5139,-0.5145,-0.5168,-0.5173,-0.5177,-0.5194,-0.5203,-0.5222,-0.5233,-0.5245,-0.5262,-0.5272,-0.5284,-0.5298,-0.5301,-0.5309,-0.5319,-0.5319,-0.532,-0.5334,-0.5315,-0.5287,-0.5285,-0.5323,-0.5323,-0.5323,0,-0.5099,-0.5118,-0.5125,-0.5132,-0.516,-0.5162,-0.5174,-0.5193,-0.5202,-0.5217,-0.5223,-0.5239,-0.5248,-0.526,-0.5282,-0.5289,-0.5293,-0.5307,-0.5302,-0.5302,-0.5302,-0.5301,-0.5274,-0.5307,-0.5307,-0.5307,-0.5307,0,-0.508,-0.5083,-0.5113,-0.5116,-0.512,-0.5143,-0.5147,-0.5161,-0.5178,-0.5185,-0.5207,-0.5214,-0.5242,-0.5253,-0.527,-0.5278,-0.5282,-0.5292,-0.5296,-0.5289,-0.5288,-0.5294,-0.5296,-0.5307,-0.5307,-0.5307,-0.5307,0,-0.5051,-0.507,-0.5078,-0.5103,-0.511,-0.5111,-0.5133,-0.5138,-0.5154,-0.5163,-0.5167,-0.5192,-0.5206,-0.5228,-0.5249,-0.5261,-0.5265,-0.5273,-0.5258,-0.5261,-0.5254,-0.5254,-0.523,-0.5228,-0.5263,-0.5262,-0.5262,0,-0.5037,-0.504,-0.5064,-0.507,-0.5081,-0.509,-0.5099,-0.5122,-0.513,-0.5151,-0.5154,-0.5168,-0.5181,-0.5202,-0.5223,-0.5239,-0.5247,-0.5237,-0.5249,-0.5242,-0.5246,-0.5245,-0.5246,-0.5234,-0.5234,-0.5233,-0.5233,0,-0.5011,-0.5021,-0.5031,-0.5045,-0.5054,-0.5067,-0.5081,-0.5085,-0.5111,-0.5119,-0.5132,-0.5142,-0.5162,-0.5177,-0.5196,-0.5209,-0.5225,-0.5229,-0.5229,-0.5221,-0.5212,-0.5217,-0.525,-0.5229,-0.523,-0.523,-0.523,-0.523,-0.4989,-0.4992,-0.501,-0.5021,-0.5033,-0.5045,-0.5051,-0.5067,-0.5078,-0.5095,-0.5109,-0.5121,-0.514,-0.5166,-0.5179,-0.5189,-0.5197,-0.5197,-0.5196,-0.5196,-0.5193,-0.5211,-0.5193,-0.5193,-0.5193,-0.5194,-0.5194,0,-0.4964,-0.4976,-0.4986,-0.5004,-0.5013,-0.5026,-0.5042,-0.5049,-0.5059,-0.5075,-0.5087,-0.5102,-0.5116,-0.5138,-0.5154,-0.5158,-0.5166,-0.5162,-0.5161,-0.5164,-0.5185,-0.5184,-0.5155,-0.5155,-0.5155,-0.5155,-0.5155,-0.5155,-0.4952,-0.4957,-0.4969,-0.4981,-0.4994,-0.5005,-0.5013,-0.5024,-0.5037,-0.5052,-0.5064,-0.5077,-0.5096,-0.5113,-0.5127,-0.5133,-0.5138,-0.5131,-0.514,-0.5159,-0.5163,-0.5166,-0.5165,-0.5132,-0.5132,-0.5117,-0.5117,-0.5117]},{"header":{"parameterUnit":"m.s-1","parameterCategory":1,"la1":30.2991,"la2":30.254,"lo1":-89.0895,"lo2":-89.0444,"dx":0.0017,"dy":0.0017,"nx":28,"ny":28,"refTime":"2022-12-05T15:00:00:Z","depth":0,"parameterNumber":3,"parameterNumberName":"V-component_of_WINDS"},"data":[0,0,0,0,0,0,0,0,0,0,0,0,0,0,0,0,0,0,0,0,0,0,0,0,0,0,0,0,0,0,0,0,0,0,0,0,0,0,0,0,0,0,0,0,0,0,0,0,0,0,0,0,0,0,0,0,0,0,1.8025,1.8026,0,1.8079,1.808,1.808,1.8104,1.8104,1.8104,1.8103,1.8164,1.8166,1.8167,0,0,0,0,0,0,0,0,0,0,0,0,0,1.7947,1.7948,1.8025,1.8026,1.8026,1.8079,1.808,1.8081,1.8104,1.8104,1.8104,1.8103,1.8163,1.8165,1.8168,0,0,0,0,0,0,0,0,0,0,0,0,0,1.7989,1.7948,1.8025,1.8044,1.8046,1.8079,1.808,1.8081,1.8104,1.8104,1.8104,1.8103,1.8163,1.8165,1.8168,1.8187,0,0,1.8176,1.8177,0,0,0,0,0,0,0,0,1.7986,1.7992,1.8041,1.8043,1.8045,1.8084,1.8075,1.8117,1.8104,1.8082,1.8103,1.8103,1.8138,1.8143,1.8153,1.819,1.8192,1.8176,1.8177,1.8179,1.8179,0,0,0,0,0,0,0,1.7984,1.799,1.8047,1.8041,1.8044,1.8052,1.8058,1.8083,1.8111,1.8084,1.8086,1.8092,1.8139,1.8151,1.8155,1.8193,1.8176,1.8178,1.818,1.8181,1.825,1.825,0,0,0,0,0,0,1.7977,1.7987,1.8045,1.8048,1.8015,1.8053,1.806,1.8072,1.811,1.8116,1.8092,1.8093,1.8146,1.8152,1.8157,1.8183,1.8178,1.8181,1.8182,1.8249,1.825,1.825,0,0,0,0,0,0,1.7975,1.7982,1.8043,1.8018,1.8026,1.8055,1.8069,1.8073,1.8085,1.8116,1.8122,1.8098,1.8147,1.8154,1.8179,1.8185,1.8182,1.8184,1.8249,1.8249,1.825,1.8233,0,0,0,0,0,0,1.7973,1.7981,1.7987,1.8018,1.8028,1.8062,1.8069,1.8075,1.8088,1.809,1.8123,1.8129,1.8147,1.8175,1.8182,1.8189,1.8186,1.8249,1.8249,1.825,1.8233,1.8233,1.8233,0,0,0,0,0,1.797,1.7981,1.7987,1.7994,1.8036,1.8062,1.8068,1.8087,1.8089,1.8096,1.8117,1.8128,1.8183,1.8178,1.8185,1.8193,1.8248,1.8249,1.825,1.8234,1.8233,1.8233,0,0,0,0,0,0,1.7952,1.7985,1.7993,1.8014,1.8035,1.8066,1.8076,1.8086,1.8108,1.8109,1.8134,1.8141,1.8165,1.8182,1.8175,1.8214,1.8217,1.8219,1.8202,1.8202,1.8202,1.8197,1.8189,0,0,0,0,0,1.795,1.7967,1.7996,1.8012,1.8022,1.8047,1.806,1.8073,1.8096,1.8106,1.8128,1.8152,1.8175,1.8189,1.8212,1.8236,1.8245,1.8245,1.8245,1.8244,1.8246,1.8261,1.8262,1.8252,1.8252,1.8252,0,0,1.7947,1.7967,1.7977,1.8009,1.8027,1.8046,1.8055,1.8074,1.8089,1.8109,1.8134,1.8152,1.818,1.8205,1.8217,1.822,1.8251,1.8245,1.8245,1.8247,1.8262,1.8263,1.8264,1.8253,1.8252,1.8252,0,0,1.7951,1.7968,1.7983,1.8,1.8027,1.8043,1.8047,1.8077,1.8089,1.8114,1.813,1.8149,1.8188,1.8208,1.8223,1.8235,1.8247,1.8242,1.8241,1.8255,1.8256,1.8257,1.8262,1.8264,1.8244,1.8244,1.8244,0,1.7944,1.7971,1.799,1.8009,1.8023,1.8041,1.8058,1.8075,1.8108,1.8118,1.812,1.8169,1.819,1.822,1.8223,1.8235,1.8241,1.8239,1.8254,1.8255,1.8256,1.8262,1.8264,1.8243,1.8243,1.8243,1.8243,0,1.7962,1.7981,1.7991,1.8021,1.8037,1.8054,1.8077,1.8091,1.8103,1.812,1.8147,1.8172,1.8201,1.8209,1.8222,1.8242,1.8243,1.8249,1.8252,1.8256,1.8262,1.8264,1.8242,1.8242,1.8243,1.8243,0,0,1.7956,1.7996,1.7999,1.8014,1.8044,1.806,1.808,1.8106,1.8118,1.8141,1.8159,1.8192,1.8198,1.8215,1.823,1.8243,1.8252,1.8248,1.8249,1.8249,1.8278,1.8273,1.8275,1.826,1.8261,1.8261,1.8276,0,1.7965,1.7998,1.8016,1.8043,1.8061,1.8079,1.8096,1.8118,1.8135,1.8154,1.8174,1.8197,1.8203,1.8213,1.8227,1.8248,1.8259,1.8247,1.8279,1.828,1.8271,1.8278,1.8273,1.8285,1.8278,1.8279,1.8279,0,1.7979,1.8,1.8028,1.8057,1.8066,1.808,1.8107,1.8125,1.8151,1.8162,1.8181,1.8196,1.822,1.8221,1.8255,1.8247,1.8261,1.8274,1.8275,1.8279,1.828,1.8283,1.829,1.8292,1.8282,1.8282,1.8282,0,1.7972,1.8008,1.8029,1.8041,1.8075,1.8085,1.8101,1.8126,1.8141,1.8165,1.8176,1.8202,1.8217,1.8238,1.8261,1.826,1.8293,1.8296,1.8305,1.8304,1.8311,1.831,1.8321,1.8319,1.8319,1.8319,1.8319,0,1.798,1.7997,1.8026,1.804,1.806,1.8081,1.8101,1.8118,1.8141,1.8159,1.8177,1.8194,1.8222,1.8244,1.8262,1.8288,1.8294,1.8306,1.831,1.8304,1.8303,1.8314,1.8314,1.832,1.8319,1.8319,1.8319,0,1.7976,1.7996,1.8021,1.8051,1.806,1.8073,1.81,1.8115,1.8133,1.8156,1.8163,1.8191,1.8218,1.8242,1.8278,1.829,1.8316,1.8322,1.8307,1.8309,1.8317,1.8316,1.8336,1.834,1.8334,1.8335,1.8335,0,1.798,1.7993,1.8024,1.8037,1.8051,1.8072,1.8087,1.8109,1.8125,1.8156,1.8167,1.8195,1.8218,1.8259,1.8285,1.8312,1.832,1.8324,1.8324,1.8318,1.8321,1.832,1.8322,1.8324,1.8324,1.8324,1.8324,0,1.7984,1.7994,1.8014,1.8038,1.8055,1.8076,1.8097,1.8107,1.8134,1.8151,1.8177,1.8195,1.8231,1.8259,1.8289,1.8308,1.8321,1.8324,1.8328,1.8322,1.8312,1.8318,1.8306,1.8323,1.8323,1.8324,1.8324,1.8324,1.7985,1.7998,1.8022,1.8044,1.8062,1.8082,1.8097,1.8116,1.8138,1.8168,1.818,1.8207,1.8235,1.8277,1.8295,1.8319,1.8321,1.8326,1.8328,1.8329,1.8328,1.8308,1.8324,1.8324,1.8324,1.8324,1.8324,0,1.7991,1.8007,1.8028,1.8056,1.8074,1.8083,1.8108,1.8123,1.8146,1.8169,1.8191,1.8223,1.825,1.8277,1.8306,1.832,1.8327,1.8327,1.8326,1.8331,1.8323,1.8317,1.8321,1.832,1.832,1.832,1.832,1.832,1.7996,1.8018,1.8031,1.8063,1.808,1.8105,1.8118,1.8137,1.8156,1.8189,1.8211,1.8229,1.8255,1.8286,1.8312,1.832,1.833,1.8328,1.8338,1.8331,1.8331,1.8331,1.8326,1.833,1.833,1.8343,1.8343,1.8344]}]]